Location: Unspecified
(52.4292°N, 19.3359°E)
Time: 23:38:50
(UTC+02:00)

A-11 Canister half - Pass Details

Date: 20 May 2024
Orbit: 1524 x 1683 km, 47.3° (Epoch: 19 June)

Event Time Altitude Azimuth Distance (km) Brightness Sun altitude
Rises 23:50:53 0° 240° (WSW) 4,706 11.4 -16.8°
Reaches altitude 10° 23:53:57 10° 237° (WSW) 3,741 10.8 -16.9°
Maximum altitude 00:03:09 57° 162° (SSE) 1,824 9.0 -17.1°
Drops below altitude 10° 00:12:40 10° 87° (E) 3,869 11.1 -17.3°
Sets 00:15:54 0° 84° (E) 4,877 11.6 -17.4°
